Date String (YYYY-MM-DD hh:mm:ss) UTC,Instrument flags,Ambient pressure (hPa),Sample flow (lpm),Bypass flow (lpm),Sample temperature (°C),Ambient temperature (°C),ASC tube jacket temperature (°C),LED temperature (°C),Box temperature (°C),Sample RH (%),Span deviation,Mass concentration (μg/m³),Mass concentration (μg/m³),Mass concentration (μg/m³)
DateTimeUTC,F1_M11,P_M11,Q1_M11,Q2_M11,T1_M11,T2_M11,T3_M11,T4_M11,T5_M11,U1_M11,ZSPAN_M11,X0_M11,X2_M11,X1_M11
2022-08-03 04:00:00,,0826.4,4.99,0.00,29.8,28.1,00.0,38.5,31.5,32.1,0000.0,0003.06,0001.91,0001.47
2022-08-03 04:01:00,,0826.4,5.00,0.00,29.8,28.3,00.0,38.5,31.6,32.5,0000.0,0003.10,0001.94,0001.48
2022-08-03 04:02:00,,0826.5,4.99,0.00,29.8,28.4,00.0,38.5,31.6,31.9,0000.0,0003.00,0001.92,0001.49
2022-08-03 04:03:00,,0826.5,5.00,0.00,29.8,28.5,00.0,38.5,31.6,31.0,0000.0,0002.98,0001.89,0001.48
2022-08-03 04:04:00,,0826.4,5.01,0.00,29.8,28.1,00.0,38.5,31.5,30.7,0000.0,0003.00,0001.88,0001.47
2022-08-03 04:05:00,,0826.4,5.01,0.00,29.8,27.4,00.0,38.5,31.4,30.8,0000.0,0003.08,0001.92,0001.47
2022-08-03 04:06:00,,0826.5,4.99,0.00,29.7,27.1,00.0,38.5,31.3,30.4,0000.0,0003.08,0001.91,0001.46
2022-08-03 04:07:00,,0826.5,4.99,0.00,29.6,27.0,00.0,38.4,31.1,29.8,0000.0,0003.06,0001.92,0001.45
2022-08-03 04:08:00,,0826.5,5.00,0.00,29.5,27.1,00.0,38.4,31.1,30.3,0000.0,0003.06,0001.93,0001.44
2022-08-03 04:09:00,,0826.5,5.00,0.00,29.5,27.3,00.0,38.4,31.2,32.4,0000.0,0003.08,0001.90,0001.43
2022-08-03 04:10:00,,0826.5,5.00,0.00,29.5,27.4,00.0,38.3,31.2,33.1,0000.0,0002.92,0001.86,0001.42
2022-08-03 04:11:00,,0826.5,4.99,0.00,29.5,27.6,00.0,38.3,31.3,33.3,0000.0,0003.41,0001.87,0001.42
2022-08-03 04:12:00,,0826.5,5.01,0.00,29.5,27.8,00.0,38.3,31.3,33.1,0000.0,0003.48,0001.84,0001.42
2022-08-03 04:13:00,,0826.5,5.00,0.00,29.5,27.9,00.0,38.3,31.4,33.1,0000.0,0003.61,0001.89,0001.43
2022-08-03 04:14:00,,0826.5,5.00,0.00,29.6,28.1,00.0,38.3,31.4,33.0,0000.0,0003.59,0001.90,0001.43
2022-08-03 04:15:00,,0826.5,5.00,0.00,29.6,28.2,00.0,38.3,31.4,33.0,0000.0,0003.51,0001.88,0001.43
2022-08-03 04:16:00,,0826.5,5.00,0.00,29.6,28.3,00.0,38.4,31.5,32.7,0000.0,0003.36,0001.82,0001.43
2022-08-03 04:17:00,,0826.6,5.00,0.00,29.6,28.4,00.0,38.4,31.5,32.2,0000.0,0003.41,0001.85,0001.46
2022-08-03 04:18:00,,0826.7,5.00,0.00,29.7,28.5,00.0,38.4,31.6,32.4,0000.0,0003.47,0001.89,0001.49
2022-08-03 04:19:00,,0826.7,5.00,0.00,29.7,28.4,00.0,38.4,31.5,32.5,0000.0,0003.36,0001.87,0001.51
2022-08-03 04:20:00,,0826.6,4.98,0.00,29.7,27.8,00.0,38.4,31.4,32.1,0000.0,0003.19,0001.86,0001.52
2022-08-03 04:21:00,,0826.6,5.01,0.00,29.6,27.5,00.0,38.4,31.3,32.4,0000.0,0003.24,0001.90,0001.54
2022-08-03 04:22:00,,0826.6,5.01,0.00,29.6,27.5,00.0,38.3,31.3,31.9,0000.0,0002.85,0001.90,0001.55
2022-08-03 04:23:00,,0826.6,4.99,0.00,29.5,27.5,00.0,38.3,31.3,31.8,0000.0,0002.70,0001.89,0001.55
2022-08-03 04:24:00,,0826.6,5.02,0.00,29.5,27.7,00.0,38.3,31.3,31.9,0000.0,0002.70,0001.87,0001.55
2022-08-03 04:25:00,,0826.7,5.00,0.00,29.5,27.8,00.0,38.3,31.4,32.0,0000.0,0002.73,0001.88,0001.55
2022-08-03 04:26:00,,0826.7,4.99,0.00,29.5,28.0,00.0,38.3,31.4,32.0,0000.0,0002.81,0001.92,0001.57
2022-08-03 04:27:00,,0826.7,4.99,0.00,29.6,28.1,00.0,38.3,31.5,32.8,0000.0,0002.84,0001.93,0001.57
2022-08-03 04:28:00,,0826.7,5.01,0.00,29.6,28.2,00.0,38.3,31.5,33.4,0000.0,0002.92,0001.93,0001.56
2022-08-03 04:29:00,,0826.7,4.99,0.00,29.6,28.4,00.0,38.4,31.5,33.5,0000.0,0002.97,0001.91,0001.56
2022-08-03 04:30:00,,0826.7,5.00,0.00,29.6,28.5,00.0,38.4,31.6,33.7,0000.0,0003.06,0001.95,0001.59
2022-08-03 04:31:00,,0826.8,5.01,0.00,29.7,28.2,00.0,38.4,31.5,33.9,0000.0,0003.16,0002.00,0001.62
2022-08-03 04:32:00,,0826.8,4.99,0.00,29.6,27.6,00.0,38.3,31.3,33.7,0000.0,0003.22,0002.05,0001.67
2022-08-03 04:33:00,,0826.9,5.00,0.00,29.6,27.1,00.0,38.3,31.3,33.8,0000.0,0003.18,0002.09,0001.73
2022-08-03 04:34:00,,0826.9,5.01,0.00,29.5,27.0,00.0,38.3,31.1,34.1,0000.0,0003.71,0002.15,0001.78
2022-08-03 04:35:00,,0826.9,4.99,0.00,29.4,27.1,00.0,38.2,31.1,34.2,0000.0,0004.44,0002.22,0001.86
2022-08-03 04:36:00,,0826.9,5.01,0.00,29.4,27.2,00.0,38.2,31.1,34.1,0000.0,0004.51,0002.30,0001.93
2022-08-03 04:37:00,,0826.9,5.01,0.00,29.4,27.4,00.0,38.2,31.2,34.0,0000.0,0004.60,0002.39,0002.00
2022-08-03 04:38:00,,0827.0,4.98,0.00,29.4,27.6,00.0,38.2,31.2,34.0,0000.0,0004.88,0002.52,0002.07
2022-08-03 04:39:00,,0827.0,5.01,0.00,29.4,27.8,00.0,38.2,31.3,34.0,0000.0,0005.34,0002.63,0002.13
2022-08-03 04:40:00,,0827.0,5.00,0.00,29.4,27.9,00.0,38.2,31.3,33.9,0000.0,0005.51,0002.70,0002.19
2022-08-03 04:41:00,,0827.0,4.99,0.00,29.4,28.1,00.0,38.2,31.4,33.9,0000.0,0005.77,0002.76,0002.23
2022-08-03 04:42:00,,0826.9,5.00,0.00,29.4,28.2,00.0,38.2,31.4,33.7,0000.0,0006.40,0002.86,0002.28
2022-08-03 04:43:00,,0827.0,5.01,0.00,29.5,28.3,00.0,38.2,31.5,33.7,0000.0,0006.49,0002.90,0002.30
2022-08-03 04:44:00,,0826.9,4.99,0.00,29.5,28.4,00.0,38.3,31.5,33.7,0000.0,0006.80,0002.99,0002.30
2022-08-03 04:45:00,,0827.1,5.00,0.00,29.5,28.5,00.0,38.3,31.5,33.2,0000.0,0007.11,0003.12,0002.31
2022-08-03 04:46:00,,0826.8,5.00,0.00,29.6,28.5,00.0,38.3,31.5,32.8,0000.0,0006.82,0003.13,0002.30
2022-08-03 04:47:00,,0827.0,4.99,0.00,29.6,27.9,00.0,38.3,31.4,33.5,0000.0,0007.05,0003.15,0002.30
2022-08-03 04:48:00,,0826.9,5.00,0.00,29.5,27.6,00.0,38.3,31.4,33.5,0000.0,0007.29,0003.15,0002.31
2022-08-03 04:49:00,,0826.9,4.99,0.00,29.5,27.5,00.0,38.2,31.3,33.6,0000.0,0007.32,0003.17,0002.32
2022-08-03 04:50:00,,0826.9,5.00,0.00,29.5,27.6,00.0,38.2,31.3,33.8,0000.0,0007.77,0003.17,0002.33
2022-08-03 04:51:00,,0827.0,4.99,0.00,29.4,27.7,00.0,38.2,31.3,33.8,0000.0,0008.14,0003.17,0002.34
2022-08-03 04:52:00,,0827.0,5.00,0.00,29.5,27.8,00.0,38.2,31.3,33.9,0000.0,0008.42,0003.19,0002.34
2022-08-03 04:53:00,,0827.1,5.00,0.00,29.5,28.0,00.0,38.3,31.4,33.9,0000.0,0008.10,0003.15,0002.33
2022-08-03 04:54:00,,0827.0,5.01,0.00,29.5,28.1,00.0,38.3,31.4,34.0,0000.0,0008.12,0003.16,0002.32
2022-08-03 04:55:00,,0827.1,5.00,0.00,29.5,28.2,00.0,38.3,31.4,33.9,0000.0,0008.72,0003.16,0002.32
2022-08-03 04:56:00,,0827.2,5.00,0.00,29.5,28.3,00.0,38.3,31.5,33.8,0000.0,0009.90,0003.13,0002.32
2022-08-03 04:57:00,,0827.0,5.00,0.00,29.6,28.4,00.0,38.3,31.5,33.8,0000.0,0009.62,0003.12,0002.32
2022-08-03 04:58:00,,0827.1,5.00,0.00,29.6,28.5,00.0,38.3,31.6,33.6,0000.0,0009.91,0003.13,0002.33
2022-08-03 04:59:00,,0827.3,5.00,0.00,29.6,28.4,00.0,38.3,31.6,33.4,0000.0,0010.06,0003.12,0002.33
